ASA42 PASI-PAJN

Flight info

Callsign ASA42
Flight time 0h 22m
Altitude 13000
Route HAWRD5 TNAKY
Aircraft B38M/M-SDE1FGHILORVWXY/HB1

Departure

Time 2026-04-22 05:54
Airport Sitka Rocky Gutierrez Airport (PASI)

Arrival

Time 2026-04-22 06:17
Airport Juneau International Airport (PAJN)
Time Latitude Longitude Altitude Speed Heading
2026-04-22 05:39 57.05236 -135.36605 43 ft 0 kts 76°
2026-04-22 05:45 57.05236 -135.36610 43 ft 2 kts 76°
2026-04-22 05:45 57.05231 -135.36641 42 ft 3 kts 76°
2026-04-22 05:46 57.05227 -135.36678 40 ft 3 kts 76°
2026-04-22 05:46 57.05222 -135.36714 41 ft 3 kts 75°
2026-04-22 05:46 57.05217 -135.36746 40 ft 2 kts 75°
2026-04-22 05:46 57.05216 -135.36752 40 ft 1 kts 75°
2026-04-22 05:49 57.05216 -135.36748 40 ft 1 kts 82°
2026-04-22 05:49 57.05209 -135.36728 39 ft 4 kts 136°
2026-04-22 05:49 57.05154 -135.36664 40 ft 15 kts 143°
2026-04-22 05:49 57.05062 -135.36506 40 ft 20 kts 134°
2026-04-22 05:50 57.04958 -135.36342 39 ft 20 kts 151°
2026-04-22 05:50 57.04806 -135.36300 31 ft 25 kts 161°
2026-04-22 05:50 57.04672 -135.36087 31 ft 26 kts 135°
2026-04-22 05:50 57.04537 -135.35844 30 ft 28 kts 135°
2026-04-22 05:51 57.04395 -135.35587 29 ft 29 kts 136°
2026-04-22 05:51 57.04246 -135.35317 27 ft 31 kts 136°
2026-04-22 05:51 57.04099 -135.35055 26 ft 23 kts 135°
2026-04-22 05:51 57.04022 -135.34949 29 ft 9 kts 127°
2026-04-22 05:52 57.04025 -135.34919 28 ft 1 kts 26°
2026-04-22 05:52 57.04044 -135.34935 29 ft 4 kts 317°
2026-04-22 05:52 57.04049 -135.34947 26 ft 0 kts 304°
2026-04-22 05:53 57.04059 -135.34975 30 ft 8 kts 307°
2026-04-22 05:53 57.04175 -135.35194 27 ft 57 kts 316°
2026-04-22 05:53 57.04664 -135.36074 31 ft 136 kts 315°
2026-04-22 05:54 57.05429 -135.37461 492 ft 163 kts 314°
2026-04-22 05:54 57.06228 -135.38940 1395 ft 163 kts 314°
2026-04-22 05:54 57.07026 -135.40566 1992 ft 186 kts 307°
2026-04-22 05:54 57.07927 -135.42581 2559 ft 217 kts 307°
2026-04-22 05:55 57.08879 -135.44717 3791 ft 218 kts 308°
2026-04-22 05:55 57.09905 -135.46929 4691 ft 232 kts 310°
2026-04-22 05:55 57.11082 -135.49094 5646 ft 245 kts 318°
2026-04-22 05:55 57.12416 -135.50996 6901 ft 243 kts 321°
2026-04-22 05:56 57.13754 -135.52864 8066 ft 241 kts 321°
2026-04-22 05:56 57.15252 -135.54261 9149 ft 248 kts 342°
2026-04-22 05:56 57.17035 -135.54133 10103 ft 270 kts
2026-04-22 05:56 57.18848 -135.52938 10926 ft 281 kts 12°
2026-04-22 05:57 57.20665 -135.51689 11554 ft 275 kts 11°
2026-04-22 05:57 57.22526 -135.50586 11512 ft 286 kts
2026-04-22 05:57 57.24447 -135.49517 11218 ft 290 kts
2026-04-22 05:57 57.26378 -135.48468 10997 ft 286 kts
2026-04-22 05:58 57.28269 -135.47454 11258 ft 285 kts
2026-04-22 05:58 57.30198 -135.46429 11509 ft 291 kts
2026-04-22 05:58 57.32154 -135.45393 11793 ft 293 kts
2026-04-22 05:58 57.34123 -135.44352 12044 ft 294 kts
2026-04-22 05:59 57.36093 -135.43312 12312 ft 295 kts
2026-04-22 05:59 57.38040 -135.42283 12569 ft 295 kts
2026-04-22 05:59 57.40024 -135.41235 12842 ft 298 kts
2026-04-22 05:59 57.42019 -135.40179 13003 ft 299 kts
2026-04-22 06:00 57.44016 -135.39122 12977 ft 298 kts
2026-04-22 06:00 57.46011 -135.38064 13009 ft 298 kts
2026-04-22 06:00 57.48029 -135.36992 12958 ft 298 kts
2026-04-22 06:00 57.50011 -135.35939 13024 ft 296 kts
2026-04-22 06:01 57.51974 -135.34894 13039 ft 299 kts
2026-04-22 06:01 57.53978 -135.33827 12953 ft 299 kts
2026-04-22 06:01 57.55999 -135.32751 12943 ft 298 kts
2026-04-22 06:01 57.57999 -135.31685 12969 ft 311 kts
2026-04-22 06:02 57.60131 -135.30545 12968 ft 322 kts
2026-04-22 06:02 57.62239 -135.29416 12947 ft 307 kts
2026-04-22 06:02 57.64240 -135.28341 12991 ft 292 kts
2026-04-22 06:02 57.66161 -135.27311 12884 ft 284 kts
2026-04-22 06:03 57.68068 -135.26289 12697 ft 289 kts
2026-04-22 06:03 57.70022 -135.25239 12324 ft 295 kts
2026-04-22 06:03 57.71996 -135.24177 12005 ft 295 kts
2026-04-22 06:03 57.73970 -135.23114 11704 ft 295 kts
2026-04-22 06:04 57.75938 -135.22053 11376 ft 293 kts
2026-04-22 06:04 57.77890 -135.20999 11033 ft 291 kts
2026-04-22 06:04 57.79822 -135.19955 10700 ft 288 kts
2026-04-22 06:04 57.81727 -135.18923 10555 ft 282 kts
2026-04-22 06:05 57.83590 -135.17913 10392 ft 276 kts
2026-04-22 06:05 57.85412 -135.16926 10215 ft 269 kts
2026-04-22 06:05 57.87175 -135.15970 10082 ft 259 kts
2026-04-22 06:05 57.88873 -135.15046 9948 ft 250 kts
2026-04-22 06:06 57.90538 -135.14141 9648 ft 248 kts
2026-04-22 06:06 57.92194 -135.13240 9343 ft 247 kts
2026-04-22 06:06 57.93860 -135.12332 9073 ft 252 kts 10°
2026-04-22 06:06 57.95565 -135.11402 8790 ft 257 kts 10°
2026-04-22 06:07 57.97290 -135.10461 8460 ft 258 kts 10°
2026-04-22 06:07 57.99008 -135.09524 8152 ft 257 kts 10°
2026-04-22 06:07 58.00726 -135.08583 7942 ft 257 kts 11°
2026-04-22 06:07 58.02445 -135.07642 7668 ft 258 kts 11°
2026-04-22 06:08 58.04164 -135.06700 7374 ft 257 kts 11°
2026-04-22 06:08 58.05877 -135.05758 7087 ft 256 kts 11°
2026-04-22 06:08 58.07584 -135.04812 6758 ft 256 kts 11°
2026-04-22 06:08 58.09288 -135.03867 6465 ft 254 kts 11°
2026-04-22 06:09 58.10976 -135.02931 6179 ft 252 kts 11°
2026-04-22 06:09 58.12651 -135.02004 5895 ft 250 kts 13°
2026-04-22 06:09 58.14313 -135.01082 5607 ft 248 kts 13°
2026-04-22 06:09 58.15962 -135.00164 5331 ft 246 kts 13°
2026-04-22 06:10 58.17597 -134.99254 5060 ft 244 kts 13°
2026-04-22 06:10 58.19220 -134.98349 4781 ft 243 kts 13°
2026-04-22 06:10 58.20860 -134.97434 4506 ft 248 kts 13°
2026-04-22 06:10 58.22536 -134.96499 4217 ft 253 kts 13°
2026-04-22 06:11 58.24209 -134.95564 4015 ft 247 kts 13°
2026-04-22 06:11 58.25812 -134.94667 3842 ft 232 kts 13°
2026-04-22 06:11 58.27318 -134.93823 3696 ft 219 kts 13°
2026-04-22 06:11 58.28715 -134.93003 3523 ft 208 kts 14°
2026-04-22 06:12 58.30143 -134.92195 3551 ft 211 kts 12°
2026-04-22 06:12 58.31498 -134.91458 3442 ft 200 kts 13°
2026-04-22 06:12 58.32822 -134.90703 3098 ft 199 kts 13°
2026-04-22 06:12 58.34180 -134.89931 3019 ft 206 kts 16°
2026-04-22 06:13 58.35464 -134.88724 2903 ft 208 kts 37°
2026-04-22 06:13 58.36246 -134.86469 2518 ft 208 kts 79°
2026-04-22 06:13 58.36250 -134.83845 2442 ft 191 kts 97°
2026-04-22 06:13 58.36117 -134.81393 2267 ft 177 kts 98°
2026-04-22 06:14 58.36006 -134.79097 2223 ft 176 kts 96°
2026-04-22 06:14 58.35940 -134.76745 2210 ft 179 kts 94°
2026-04-22 06:14 58.35883 -134.74442 2125 ft 169 kts 95°
2026-04-22 06:14 58.35850 -134.72242 1902 ft 164 kts 93°
2026-04-22 06:15 58.35838 -134.70105 1536 ft 158 kts 92°
2026-04-22 06:15 58.35819 -134.68099 1195 ft 149 kts 95°
2026-04-22 06:15 58.35761 -134.66119 800 ft 146 kts 94°
2026-04-22 06:15 58.35777 -134.64216 559 ft 145 kts 86°
2026-04-22 06:16 58.35907 -134.62331 387 ft 143 kts 84°
2026-04-22 06:16 58.35889 -134.60484 160 ft 137 kts 102°
2026-04-22 06:16 58.35658 -134.58795 37 ft 121 kts 104°
2026-04-22 06:16 58.35500 -134.57668 39 ft 61 kts 105°
2026-04-22 06:17 58.35443 -134.57258 37 ft 38 kts 104°
2026-04-22 06:17 58.35382 -134.56817 35 ft 19 kts 105°
2026-04-22 06:17 58.35424 -134.56677 36 ft 11 kts 13°
2026-04-22 06:17 58.35470 -134.56699 36 ft 6 kts 313°
2026-04-22 06:18 58.35485 -134.56758 36 ft 5 kts 287°
2026-04-22 06:18 58.35496 -134.56835 36 ft 8 kts 286°
2026-04-22 06:18 58.35515 -134.56954 36 ft 11 kts 284°
2026-04-22 06:18 58.35537 -134.57119 37 ft 15 kts 284°
2026-04-22 06:19 58.35565 -134.57328 37 ft 18 kts 285°
2026-04-22 06:19 58.35606 -134.57622 37 ft 28 kts 284°
2026-04-22 06:19 58.35663 -134.58034 36 ft 35 kts 284°
2026-04-22 06:19 58.35699 -134.58266 36 ft 9 kts 301°
2026-04-22 06:20 58.35744 -134.58303 36 ft 7 kts 343°
2026-04-22 06:20 58.35774 -134.58372 35 ft 8 kts 290°
2026-04-22 06:20 58.35793 -134.58477 35 ft 8 kts 302°
2026-04-22 06:20 58.35823 -134.58475 36 ft 5 kts 36°
2026-04-22 06:21 58.35843 -134.58437 35 ft 1 kts 48°
2026-04-22 06:21 58.35845 -134.58434 36 ft 0 kts 49°